Wind_Speed
41 41 42 42 41 42 44 44 45 43 42 40 40 40 41 42 43 43 44 43 43 43 44 44 43 43 44 44 44 44 44 43 43 44 44 44 45 47 48 49 49 50 50 50
42 41 43 44 43 43 43 44 44 44 42 40 40 41 42 43 43 44 44 44 44 44 43 43 43 43 43 43 43 42 43 43 43 44 44 44 45 47 48 48 48 49 49 50
43 42 44 46 42 42 42 42 43 44 43 41 41 41 42 43 44 44 44 43 43 42 42 42 42 42 42 42 42 42 43 43 43 44 44 45 45 46 47 47 48 49 49 50
44 44 47 43 41 41 41 41 41 42 42 42 42 42 42 44 44 44 43 42 41 42 42 42 42 42 42 42 42 43 43 44 44 44 44 45 46 47 48 48 49 49 49 49
44 45 46 42 40 40 40 40 40 41 41 41 42 42 42 42 42 42 42 41 41 42 41 41 41 40 41 41 42 42 42 43 44 45 45 45 46 47 49 49 49 48 48 48
42 43 44 41 39 39 40 41 39 39 40 40 41 42 41 41 41 41 40 40 41 41 41 40 40 40 40 40 41 41 42 43 44 45 45 45 46 47 47 47 47 47 46 47
41 42 42 40 39 40 41 40 39 39 39 39 40 40 40 40 39 39 39 40 40 41 41 39 39 39 40 41 42 42 43 43 44 44 45 45 45 46 47 47 47 46 47 47
39 41 40 39 40 41 41 40 40 39 39 38 38 38 38 38 38 38 39 39 40 40 39 39 40 40 40 41 42 42 43 43 43 44 44 44 45 45 46 46 46 46 46 45
36 38 38 39 40 40 40 40 39 39 38 38 37 37 37 37 38 38 38 38 39 39 39 40 40 40 40 41 42 42 42 42 43 43 44 44 45 45 45 46 45 45 44 43
36 36 37 39 40 40 40 40 40 40 39 38 38 37 37 38 38 38 38 38 38 38 38 39 40 40 41 42 42 42 42 42 42 42 43 44 44 44 44 44 43 43 42 42
38 38 39 39 38 38 39 40 40 39 38 38 38 38 38 38 38 38 38 38 38 38 38 39 40 41 41 41 41 41 42 42 41 42 42 43 43 43 42 41 42 41 40 38
37 36 38 38 39 39 40 40 39 39 39 38 38 39 39 38 38 38 38 38 39 39 39 39 40 40 41 41 41 41 42 42 42 42 42 41 41 40 39 39 38 38 36 35
37 38 39 39 39 39 39 39 39 39 40 40 40 40 39 39 39 38 38 38 39 39 39 39 40 40 41 40 41 41 41 42 41 41 40 40 39 38 36 35 35 34 33 32
36 37 38 38 38 38 38 38 39 40 40 40 40 40 40 39 39 39 39 39 40 40 40 40 40 40 40 40 41 40 40 40 40 39 38 38 37 35 34 33 32 30 30 29
35 35 36 36 37 37 38 39 39 39 39 39 39 39 40 40 40 40 40 40 40 40 41 40 40 40 40 40 39 38 38 37 36 36 35 34 33 32 31 30 29 27 27 25
33 34 35 36 37 37 37 38 38 38 38 38 38 38 38 38 38 39 39 39 39 39 39 39 38 38 37 37 36 36 35 34 34 33 32 31 30 29 28 27 25 24 23 23
32 32 33 33 33 33 34 35 35 36 36 36 36 36 36 36 36 37 36 36 36 35 36 35 35 35 34 34 34 33 33 32 32 31 30 29 28 26 26 25 23 22 21 21
29 30 30 30 30 30 31 31 32 32 32 32 33 33 34 34 34 33 33 34 34 34 34 34 34 33 32 32 31 31 31 29 29 28 27 26 25 24 23 22 21 20 19 19
26 27 27 28 29 29 29 29 29 29 29 30 30 31 31 31 32 32 32 32 32 32 32 32 31 31 30 29 29 28 28 27 26 25 25 24 23 22 21 20 19 18 17 17
24 25 25 26 27 27 28 28 28 28 29 29 29 30 30 31 31 31 30 30 30 30 29 29 29 28 28 27 26 26 26 25 23 23 23 21 20 20 20 19 18 17 16 15
24 25 25 26 27 27 27 27 27 27 28 28 29 29 29 29 29 29 28 27 27 27 27 27 26 26 26 25 25 24 24 23 21 21 21 20 20 19 18 17 17 16 14 14
24 24 25 25 25 25 25 25 26 26 27 27 27 28 28 28 27 27 26 26 26 26 25 25 24 24 24 24 24 23 22 21 20 20 20 19 19 18 17 16 15 14 14 13
23 23 23 23 23 24 24 25 25 26 26 26 27 27 27 26 26 26 26 26 26 25 25 24 24 23 23 23 22 21 21 20 20 19 18 18 17 16 16 15 14 13 13 13
22 22 22 22 22 23 23 24 25 25 26 26 26 26 26 26 25 26 25 25 25 25 24 24 23 23 23 22 21 20 20 20 19 18 17 16 16 16 16 15 15 14 14 13
21 21 21 22 22 23 23 23 24 24 24 24 24 25 25 25 25 25 25 24 24 23 23 22 23 22 22 21 20 20 19 19 18 18 17 16 16 15 15 15 15 14 13 12
21 22 22 22 22 22 22 22 22 22 23 23 23 24 24 24 24 24 24 23 23 22 22 21 21 21 20 20 19 19 19 18 17 17 16 15 15 14 14 13 13 13 12 12
22 21 21 21 21 22 21 21 21 21 21 21 21 21 22 22 22 22 21 21 21 21 20 20 20 20 19 19 18 18 17 17 16 15 15 14 14 13 12 12 12 11 11 10
Wind_Direction
256 258 259 259 259 260 261 263 265 268 270 272 274 275 275 276 278 279 281 281 282 282 282 282 281 281 282 282 282 282 283 283 283 283 282 281 281 280 280 280 280 281 281 281
255 257 259 260 260 261 263 266 267 268 269 272 273 274 275 276 278 280 281 282 282 282 281 281 281 282 283 283 283 283 283 284 284 284 283 282 282 281 281 281 281 282 282 282
255 257 259 260 263 264 266 266 267 269 271 271 271 272 275 277 279 281 282 281 281 282 283 282 282 282 283 283 283 283 283 284 285 285 284 284 284 283 283 284 284 283 282 282
256 257 258 263 263 264 267 267 268 269 270 271 272 272 274 276 278 280 281 282 282 282 282 283 282 282 283 284 284 284 285 285 285 286 286 285 285 285 284 285 285 284 283 282
258 260 262 263 264 265 267 268 268 270 271 272 273 274 275 277 279 280 281 282 282 282 282 283 282 283 284 284 285 286 286 286 287 286 286 286 286 286 286 286 285 286 285 284
258 260 263 266 266 266 267 269 270 271 271 272 273 274 275 276 278 279 279 280 281 282 283 283 282 283 284 285 287 287 288 288 288 288 287 288 288 288 287 286 286 286 285 285
258 261 263 265 267 268 269 272 271 272 273 273 274 275 276 277 278 278 278 280 281 282 283 283 283 284 285 286 288 289 289 289 289 289 289 290 291 290 289 289 288 288 288 286
258 260 263 265 266 268 270 270 271 272 273 273 274 275 277 278 279 279 280 280 281 281 281 282 284 285 286 287 289 290 290 290 290 291 291 291 291 291 291 290 290 289 288 286
257 259 262 263 265 267 268 269 271 272 272 273 274 275 277 279 280 280 281 280 281 282 282 284 285 286 288 289 290 291 291 291 291 292 292 292 292 292 291 290 290 289 288 287
256 257 259 262 264 265 266 267 269 271 272 271 273 275 277 279 279 280 280 281 281 282 283 284 286 288 290 291 291 291 292 292 292 293 294 294 294 293 292 290 290 290 289 287
257 259 259 259 260 262 263 266 269 270 271 272 274 276 277 278 278 278 278 279 281 283 284 285 286 289 290 290 290 291 292 293 293 294 294 295 295 294 293 291 291 291 289 287
255 256 257 258 259 261 263 266 268 269 271 272 274 276 277 277 276 277 278 280 282 283 284 285 287 288 289 290 291 292 292 293 294 295 295 295 295 295 294 293 292 291 290 287
255 256 259 261 262 263 264 266 268 269 271 272 273 275 276 276 277 278 279 281 282 283 284 286 287 288 289 289 291 293 293 294 295 296 296 296 296 295 293 292 291 290 289 288
256 259 261 262 263 264 265 267 268 269 270 271 272 273 274 276 277 278 279 281 283 283 285 286 287 288 289 290 292 293 294 295 296 297 297 297 296 296 295 293 291 289 287 285
258 260 262 262 263 264 266 267 267 268 269 270 271 273 274 276 277 278 280 282 283 284 285 286 287 289 290 291 292 293 295 295 296 297 297 297 296 295 295 295 293 291 288 286
260 262 263 264 265 266 267 269 269 270 270 272 273 274 276 277 278 279 280 282 284 285 286 287 288 290 291 291 292 293 294 294 295 296 297 297 297 297 296 295 294 291 288 286
262 263 265 266 267 268 270 271 272 272 273 273 274 275 277 278 279 280 281 282 284 285 286 287 289 291 291 292 292 293 293 294 295 296 296 297 297 297 296 295 295 293 289 286
265 266 268 269 270 272 273 272 272 272 272 273 274 275 277 278 279 280 281 282 284 285 286 288 289 291 291 291 292 293 293 293 294 295 296 296 296 296 297 296 295 294 292 290
269 269 269 270 271 272 273 272 272 272 272 273 275 276 278 279 280 281 282 282 284 285 286 288 289 291 291 290 291 292 293 293 293 293 295 296 295 295 297 297 296 295 294 293
270 269 269 270 272 273 274 273 272 272 273 275 276 278 279 281 281 281 282 282 284 285 286 288 289 290 291 290 290 292 293 292 292 293 293 293 294 296 298 298 297 297 296 295
270 270 271 271 273 273 273 273 273 274 275 276 277 279 280 281 281 282 282 283 284 285 286 288 289 290 290 290 290 292 292 292 291 291 291 291 292 295 297 297 298 297 296 294
270 271 271 272 272 272 272 273 274 275 276 277 279 280 281 281 281 282 282 283 283 285 286 287 289 290 291 291 290 291 290 290 291 291 290 289 290 292 293 295 295 294 295 294
272 272 272 272 272 271 272 274 275 276 277 278 280 281 282 281 281 281 281 281 282 283 285 285 287 289 290 291 291 290 289 289 290 291 290 289 289 289 289 290 290 289 290 290
271 271 271 271 271 272 274 275 277 278 279 279 280 280 280 280 280 281 281 280 281 283 283 284 286 288 289 290 290 288 287 287 288 289 289 288 287 286 286 286 286 286 286 286
272 273 272 272 273 274 275 277 278 279 279 279 279 280 281 281 280 280 280 281 281 282 282 283 285 287 288 288 288 286 285 285 285 286 286 285 285 285 284 284 284 282 280 280
273 274 275 275 275 275 276 277 278 279 280 280 280 281 281 281 282 282 281 281 281 281 282 283 285 286 287 287 287 285 284 284 284 284 283 283 284 284 283 283 283 280 278 277
274 274 274 275 275 276 277 279 281 281 282 283 283 282 282 282 283 283 283 283 282 282 282 283 284 285 286 286 286 285 285 284 284 283 281 280 281 282 282 282 282 280 277 275
Height
5588 5590 5591 5593 5596 5597 5598 5598 5599 5601 5601 5604 5602 5600 5600 5598 5597 5597 5596 5594 5593 5592 5590 5588 5586 5584 5582 5579 5577 5575 5573 5570 5568 5566 5563 5561 5560 5558 5557 5555 5553 5551 5549 5548
5577 5579 5579 5581 5585 5587 5587 5588 5588 5589 5591 5594 5591 5590 5589 5588 5587 5586 5585 5583 5582 5580 5579 5577 5575 5573 5570 5568 5566 5564 5562 5559 5557 5555 5552 5550 5548 5546 5544 5543 5540 5538 5536 5534
5566 5569 5567 5570 5576 5577 5577 5578 5578 5578 5582 5581 5580 5580 5579 5577 5576 5575 5574 5572 5571 5569 5567 5565 5563 5561 5559 5557 5555 5553 5551 5548 5545 5543 5541 5539 5536 5534 5532 5530 5527 5525 5522 5520
5554 5556 5556 5565 5566 5566 5566 5567 5568 5568 5569 5569 5569 5568 5568 5567 5565 5564 5563 5561 5560 5558 5556 5554 5552 5550 5548 5546 5544 5542 5539 5537 5534 5532 5529 5527 5524 5521 5519 5516 5513 5511 5508 5506
5543 5544 5546 5552 5555 5555 5555 5556 5558 5557 5558 5558 5557 5557 5557 5556 5554 5553 5552 5551 5549 5547 5545 5543 5541 5540 5538 5536 5533 5531 5528 5525 5523 5520 5517 5514 5511 5508 5505 5503 5500 5497 5495 5492
5533 5534 5536 5542 5544 5544 5545 5546 5548 5547 5546 5546 5546 5546 5547 5545 5544 5543 5542 5540 5538 5536 5534 5532 5531 5529 5527 5525 5522 5519 5517 5514 5511 5508 5505 5502 5499 5495 5492 5489 5487 5484 5481 5479
5523 5523 5525 5531 5532 5533 5535 5537 5536 5536 5535 5535 5535 5535 5535 5534 5533 5532 5531 5529 5527 5526 5524 5522 5520 5518 5516 5514 5511 5508 5505 5502 5499 5496 5493 5489 5486 5483 5480 5477 5474 5471 5469 5466
5514 5514 5519 5521 5521 5522 5523 5524 5524 5524 5524 5524 5524 5524 5524 5523 5522 5521 5520 5518 5517 5515 5513 5511 5509 5507 5505 5503 5500 5497 5494 5491 5488 5484 5480 5477 5474 5470 5467 5464 5461 5458 5456 5453
5505 5508 5509 5509 5510 5510 5511 5513 5513 5513 5514 5514 5514 5514 5513 5513 5512 5510 5509 5508 5506 5504 5503 5501 5499 5497 5494 5492 5489 5486 5483 5480 5476 5473 5469 5465 5462 5458 5455 5451 5448 5445 5442 5440
5494 5496 5498 5498 5499 5500 5501 5502 5502 5503 5503 5504 5503 5503 5503 5502 5501 5500 5499 5497 5496 5494 5493 5490 5488 5485 5483 5480 5477 5474 5471 5468 5465 5461 5458 5454 5450 5446 5442 5439 5436 5433 5430 5427
5483 5485 5486 5488 5489 5490 5490 5491 5492 5492 5493 5493 5492 5493 5492 5491 5490 5489 5488 5487 5485 5484 5482 5480 5477 5475 5472 5469 5466 5463 5460 5457 5453 5450 5446 5443 5438 5434 5430 5427 5423 5420 5418 5416
5473 5474 5475 5477 5478 5479 5480 5481 5481 5482 5482 5482 5482 5482 5481 5481 5480 5479 5478 5476 5475 5473 5471 5469 5466 5464 5460 5457 5455 5452 5449 5446 5442 5439 5435 5431 5428 5424 5419 5416 5413 5409 5406 5405
5461 5463 5464 5466 5467 5468 5469 5470 5471 5471 5471 5471 5471 5471 5470 5469 5469 5468 5467 5465 5463 5462 5460 5457 5455 5452 5450 5447 5444 5440 5437 5434 5431 5427 5424 5420 5417 5413 5411 5407 5403 5400 5397 5396
5451 5453 5454 5456 5457 5458 5458 5459 5459 5460 5460 5460 5460 5459 5459 5458 5457 5456 5455 5454 5452 5450 5448 5446 5444 5441 5438 5436 5433 5430 5426 5423 5420 5416 5413 5410 5406 5403 5400 5397 5395 5392 5390 5387
5442 5443 5444 5445 5446 5447 5447 5448 5448 5449 5449 5449 5449 5448 5448 5447 5446 5445 5444 5442 5441 5439 5437 5435 5432 5430 5427 5424 5422 5419 5416 5413 5409 5406 5403 5400 5397 5394 5391 5388 5386 5384 5382 5380
5432 5433 5434 5435 5436 5436 5437 5437 5438 5438 5438 5438 5438 5437 5436 5436 5435 5434 5433 5431 5430 5428 5426 5424 5421 5419 5416 5414 5411 5408 5406 5403 5400 5397 5394 5391 5388 5386 5383 5380 5378 5376 5374 5373
5424 5425 5425 5426 5426 5427 5427 5427 5427 5427 5427 5427 5427 5426 5426 5425 5424 5423 5422 5420 5419 5417 5415 5413 5411 5409 5406 5404 5401 5399 5396 5393 5391 5388 5386 5383 5381 5378 5376 5373 5371 5369 5368 5366
5415 5416 5417 5417 5418 5418 5418 5418 5418 5417 5417 5417 5417 5416 5416 5415 5414 5413 5412 5410 5409 5407 5405 5403 5401 5399 5396 5394 5392 5390 5387 5385 5383 5380 5378 5376 5374 5371 5369 5367 5365 5363 5362 5361
5408 5408 5409 5409 5409 5409 5409 5409 5409 5408 5408 5408 5408 5407 5406 5405 5404 5403 5402 5401 5399 5398 5396 5394 5392 5390 5387 5385 5383 5381 5379 5377 5375 5373 5371 5369 5367 5365 5363 5362 5360 5358 5357 5355
5400 5401 5401 5401 5401 5401 5401 5400 5400 5400 5400 5399 5399 5398 5397 5396 5395 5394 5393 5392 5390 5388 5387 5385 5383 5381 5379 5377 5375 5374 5372 5370 5368 5366 5365 5363 5362 5360 5358 5356 5355 5353 5352 5351
5393 5393 5394 5394 5393 5393 5393 5392 5392 5392 5391 5390 5390 5389 5388 5387 5386 5385 5384 5383 5381 5379 5378 5376 5375 5373 5371 5369 5368 5366 5365 5363 5361 5360 5359 5357 5356 5355 5353 5352 5350 5349 5348 5347
5386 5386 5386 5386 5385 5385 5385 5384 5384 5384 5383 5382 5381 5380 5379 5378 5377 5376 5375 5374 5373 5371 5370 5369 5367 5366 5364 5362 5361 5360 5358 5357 5355 5354 5353 5352 5350 5349 5348 5347 5346 5345 5344 5343
5379 5379 5379 5378 5378 5378 5377 5377 5376 5376 5375 5374 5373 5372 5371 5370 5369 5368 5367 5366 5365 5364 5362 5361 5360 5358 5357 5356 5354 5353 5352 5350 5349 5348 5347 5346 5345 5344 5343 5343 5342 5341 5340 5339
5372 5372 5372 5371 5371 5371 5370 5370 5369 5368 5367 5366 5365 5364 5363 5362 5361 5360 5359 5358 5357 5356 5355 5354 5353 5351 5350 5349 5348 5347 5345 5344 5343 5342 5342 5341 5340 5339 5339 5338 5337 5337 5336 5335
5366 5366 5365 5365 5364 5364 5363 5362 5361 5360 5359 5358 5357 5356 5355 5354 5353 5352 5351 5350 5349 5348 5347 5346 5345 5344 5343 5342 5341 5340 5339 5338 5338 5337 5336 5335 5335 5334 5333 5333 5332 5331 5331 5331
5360 5359 5359 5358 5358 5357 5356 5355 5354 5353 5352 5351 5350 5349 5348 5346 5345 5345 5344 5343 5342 5341 5340 5339 5338 5338 5337 5336 5335 5334 5333 5332 5332 5331 5331 5330 5329 5329 5328 5328 5327 5327 5326 5326
5353 5352 5352 5352 5351 5350 5349 5348 5348 5346 5345 5344 5343 5342 5341 5339 5338 5337 5336 5336 5335 5334 5333 5333 5332 5331 5330 5329 5329 5328 5327 5327 5326 5326 5325 5325 5325 5324 5324 5323 5323 5322 5322 5322